Regional Weather Roundup
Issued by NWS Green Bay, WI

Home | Current Version | Previous Version | Text Only | Print | Product List | Glossary On
Versions: 1 2 3 4 5 6 7 8 9 10 11 12 13 14 15 16 17 18 19 20 21 22 23 24 25 26 27 28 29 30 31 32 33 34 35 36 37 38 39 40 41 42 43 44 45 46 47 48 49 50
000
ASUS43 KGRB 241600
RWRGRB

NORTH-CENTRAL AND NORTHEAST WISCONSIN REGIONAL WEATHER ROUNDUP
NATIONAL WEATHER SERVICE GREEN BAY WI
1100 AM CDT FRI MAR 24 2017

WIZ005-009-010>012-018-019-241700-
NORTH CENTRAL WISCONSIN

CITY           SKY/WX    TMP DP  RH WIND       PRES   REMARKS
IRONWOOD       CLOUDY    34  33  96 N5        30.01R FOG
MANITOWISH WTR NOT AVBL
ARBOR VITAE    NOT AVBL
EAGLE RIVER    NOT AVBL
LAND O LAKES   NOT AVBL
RHINELANDER    LGT RAIN  36  35  96 NE3       29.94S FOG
PHILLIPS       NOT AVBL
ANTIGO         NOT AVBL
TOMAHAWK       NOT AVBL
MERRILL        NOT AVBL
$$

WIZ013-073-241700-
NORTHEAST WISCONSIN

CITY           SKY/WX    TMP DP  RH WIND       PRES   REMARKS
IRON MOUNTAIN  LGT RAIN  34  31  88 NW5       29.95R FOG
MARINETTE        N/A    N/A N/A N/A MISG        N/A
$$

WIZ017-030-035>037-045-241700-
CENTRAL WISCONSIN

CITY           SKY/WX    TMP DP  RH WIND       PRES   REMARKS
MEDFORD        NOT AVBL
WAUSAU         RAIN      37  35  92 NE7       29.91F FOG
MOSINEE        LGT RAIN  36  36 100 NE6       29.95R FOG
MARSHFIELD     CLOUDY    37  37 100 NE7       29.94R FOG
WISC RAPIDS    CLOUDY    38  38 100 E6        29.95S FOG
STEVENS POINT  NOT AVBL
WAUPACA        NOT AVBL
SHAWANO        NOT AVBL
CLINTONVILLE   NOT AVBL
WAUTOMA        CLOUDY    41  37  86 NE10      29.95R
$$

WIZ038-039-048-051-241700-
FOX VALLEY

CITY           SKY/WX    TMP DP  RH WIND       PRES   REMARKS
NWS GREEN BAY  CLOUDY    41  37  86 N10       29.95R
APPLETON       CLOUDY    39  37  93 NE8       29.92R
OSHKOSH        CLOUDY    44  38  79 N12       29.93R
FOND DU LAC    PTSUNNY   50  41  71 CALM      29.92R
$$

WIZ022-050-052-241700-
EAST CENTRAL WISCONSIN

CITY           SKY/WX    TMP DP  RH WIND       PRES   REMARKS
EPHRAIM        NOT AVBL
WASHINGTON ISL NOT AVBL
STURGEON BAY   CLOUDY    36  35  96 N8        29.96R FOG
MANITOWOC      NOT AVBL
SHEBOYGAN      MOSUNNY   48  40  73 CALM      29.91R
$$

LMZ563-521-522-541>543-241700-
LAKESHORE

STATION/POSITION TIME  TEMP    WIND        PRES    VSBY  WAVE
                       AIR SEA DIR/SP/G                  HT/PER
                 (UTC) (F)     (DEG/KT/KT) (MB)    (MI)  (FT/S)
SHEBOYGAN LKSHOR 1500   40     160/  2/  3 1013.0R
KEWAUNEE LKSHORE 1530   42     350/  3/  8 1013.2R
NORTHPORT PIER   1540   33     310/  4/  6 1014.6R
SISTER BAY LKSHO 1505   33     360/  7/  7   N/A
CHAMBERS ISLAND  1540   34     320/  5/  6 1014.2R
MENOMINEE LKSHOR 1530   35     320/  6/  7 1013.5R
$$




USA.gov is the U.S. government's official web portal to all federal, state and local government web resources and services.